Location: Zagreb
(45.8000°N, 16.0000°E)
Time: 16:56:51
(UTC+02:00)

Altair - Pass Details

Date: 18 July 2024
Orbit: 1502 x 1682 km, 47.2° (Epoch: 19 July)

Event Time Altitude Azimuth Distance (km) Brightness Sun altitude
Rises 02:57:17 0° 291° (WNW) 4,640 10.0 -18.3°
Reaches altitude 10° 03:00:50 10° 281° (W) 3,662 9.3 -18.0°
Maximum altitude 03:08:09 28° 227° (SW) 2,569 8.1 -17.4°
Enters shadow 03:12:16 20° 191° (S) 2,981 8.4 -17.0°
Drops below altitude 10° 03:15:36 10° 174° (S) 3,724 - -16.7°
Exits shadow 03:18:34 - 164° (SSE) 4,534 9.6 -16.4°
Sets 03:19:16 0° 163° (SSE) 4,731 9.7 -16.4°
